Weather in Shatura

Russia / Moscow Oblast     55°34′39″N   39°32′40″E
temp.,
°C
wind,
m/s
gust,
m/s
humid.,
%
clouds,
%
prec.,
mm/h
press.,
hPa
HPBL,
m
27 june, mon
mon2700:00+20s00753 0.0 102011
03:00+18wsw11790 0.0 102011
06:00+21w24740 0.0 1020116
09:00+27wnw35520 0.0 1019652
12:00+31nw464010 0.0 10182458
15:00+32nnw573416 0.0 10172995
18:00+28n584874 0.0 1017798
21:00+21nnw26760 0.3 1017111
28 june, tue
tue2800:00+19n22800 0.0 101824
03:00+17nne26880 0.0 1019116
06:00+18ne37738 0.0 1020283
09:00+21nne57455 0.0 1020838
12:00+23nne56345 0.0 10211428
15:00+23nne563223 0.0 10211665
18:00+21nne45390 0.0 10211540
21:00+14nne39660 0.0 1023184
29 june, wed
wed2900:00+11ne26750 0.0 1024105
03:00+10ne22780 0.0 102419
06:00+12ne12680 0.0 1024126
09:00+18ene23420 0.0 10241075
12:00+21ne23325 0.0 10231964
15:00+23nne32295 0.0 10222181
18:00+21nne33370 0.0 10211768
21:00+14nne23630 0.0 102150
30 june, thu
thu3000:00+12nne22724 0.0 102125
03:00+10nnw22805 0.0 102120
06:00+13nnw247154 0.0 1021124
09:00+20nnw354622 0.0 1020859
12:00+24n47305 0.0 10192050
15:00+25n57305 0.0 10182293
18:00+23nne4743100 0.0 10181951
21:00+17nnw3768100 0.0 1019134
1 july, fri
fri100:00+14n26845 0.0 1020112
03:00+12n23931 0.0 102142
06:00+15nne24735 0.0 1021148
09:00+21nne34415 0.0 1022863
12:00+24nne45300 0.0 10211840
15:00+26nne45270 0.0 10202004
18:00+25nne25380 0.0 10201540
21:00+17ene11640 0.0 102011